Regional Weather Roundup
Issued by NWS Memphis, TN

Home | Current Version | Previous Version | Text Only | Print | Product List | Glossary On
Versions: 1 2 3 4 5 6 7 8 9 10 11 12 13 14 15 16 17 18 19 20 21 22 23 24 25 26 27 28 29 30 31 32 33 34 35 36 37 38 39 40 41 42 43 44 45 46 47 48 49 50
000
ASUS44 KMEG 311610
RWRMEG
MEMPHIS CWA HOURLY WEATHER ROUNDUP
NATIONAL WEATHER SERVICE MEMPHIS TN
1100 AM CDT TUE MAY 31 2016

...WEST TENNESSEE...

CITY           SKY/WX    TMP DP  RH WIND       PRES   REMARKS
MEMPHIS INTL   CLOUDY    76  68  76 CALM      29.98S
NWS MEMPHIS      N/A     75 N/A N/A MISG        N/A
JACKSON        CLOUDY    75  67  76 VRB3      30.00R
LEXINGTON      SUNNY     79  66  65 SW6       29.98S
DYERSBURG      CLOUDY    73  66  78 CALM      29.99S
UNION CITY     MOSUNNY   73  66  78 CALM      29.98F
PARIS          SUNNY     79  64  61 SE3       29.99F


...EASTERN ARKANSAS...

CITY           SKY/WX    TMP DP  RH WIND       PRES   REMARKS
JONESBORO      CLOUDY    75  67  76 CALM      29.97F
WEST MEMPHIS   CLOUDY    75  68  78 SE5       29.96F
BATESVILLE     PTSUNNY   77  68  73 SE5       29.98F
NEWPORT        CLOUDY    77  69  76 VRB3      29.99S
WALNUT RIDGE   CLOUDY    75  64  69 CALM      29.99S
BLYTHEVILLE    CLOUDY    74  72  93 NW3       29.99S
NW BLYTHEVILLE LGT RAIN  73  68  83 NW5       29.98F
SEARCY         CLOUDY    73  70  88 CALM      29.99S
STUTTGART      CLOUDY    73  66  78 SE6       29.97S
PINE BLUFF     PTSUNNY   75  68  78 SE3       29.96S
MONTICELLO     CLOUDY    81  69  67 E6        29.96S


...NORTH MISSISSIPPI...

CITY           SKY/WX    TMP DP  RH WIND       PRES   REMARKS
TUPELO         LGT RAIN  70  66  87 NE7       29.99F
OXFORD         PTSUNNY   70  66  88 SE5       30.01S
BATESVILLE     DRIZZLE   71  67  88 CALM      29.98F
OLIVE BRANCH   PTSUNNY   72  70  94 CALM      30.00R
TUNICA         CLOUDY    70  66  88 E6        29.98F
CLARKSDALE     SUNNY     75  73  94 E8        29.97S
CORINTH        PTSUNNY   75  64  69 CALM      29.99R
GREENWOOD      MOSUNNY   82  67  60 MISG      29.96S
COLUMBUS       PTSUNNY   82  67  59 N13       29.97F
STARKVILLE     CLOUDY    79  63  57 E6        29.97R
GOLDEN TRIANGL PTSUNNY   82  64  54 N12       29.97F


...SOUTHEAST MISSOURI...

CITY           SKY/WX    TMP DP  RH WIND       PRES   REMARKS
KENNETT        CLOUDY    75  68  78 CALM      29.98S
WEST PLAINS    CLOUDY    70  63  78 CALM      30.03S
POPLAR BLUFF   CLOUDY    72  67  84 CALM      30.00R
CAPE GIRARDEAU CLOUDY    77  64  64 W5        29.98S


...NORTHWEST ALABAMA...

CITY           SKY/WX    TMP DP  RH WIND       PRES   REMARKS
MUSCLE SHOALS  CLOUDY    88  61  40 VRB3      29.98S


...MIDDLE TENNESSEE...

CITY           SKY/WX    TMP DP  RH WIND       PRES   REMARKS
NASHVILLE      CLOUDY    84  64  50 VRB3      30.00S
CLARKSVILLE    CLOUDY    81  64  56 VRB3      29.99R
COLUMBIA       SUNNY     84  68  58 E5        29.97F


...WESTERN KENTUCKY...

CITY           SKY/WX    TMP DP  RH WIND       PRES   REMARKS
PADUCAH        MOSUNNY   83  64  52 VRB3      29.97S
FORT CAMPBELL  CLOUDY    82  64  53 SE7       29.99R


...CENTRAL ARKANSAS...

CITY           SKY/WX    TMP DP  RH WIND       PRES   REMARKS
LITTLE ROCK    CLOUDY    76  68  76 E6        29.96F


SKY/WX REPORTED AS FAIR MEANS FEW OR NO CLOUDS BELOW
12 THOUSAND FEET.





USA.gov is the U.S. government's official web portal to all federal, state and local government web resources and services.